カタログに戻る

IRNSS 1D

運用中ナビゲーションGEO
NORAD 40547·PAYLOAD·🇮🇳 India

打ち上げ Mar 28, 2015 から Satish Dhawan Space Centre

Loading…

TLE

最新Source: Space-Track

元期: Sep 13, 2026, 19:34 UTC

1 40547U 15018A   26256.81556824 -.00000101  00000-0  00000-0 0  9998
2 40547  19.4021 237.1862 0009241 348.1123 184.2955  0.97958815 41771

AllMySatでIRNSS 1Dをリアルタイム追跡

Download on the App Store